This is the latest recevied weather packets stored in our database for station/object K5RWS. If no packets are shown the sender has not sent any weather packets the latest 10 day(s).
| Time | Temp. | Humidity | Pressure | Rain* | Wind** | Luminosity | Snow |
|---|---|---|---|---|---|---|---|
| 1777640918 | 8.33° C | 79% | 1018.6 hPa | 0 mm | - | 63 W/m² | - |
| 1777640615 | 7.78° C | 79% | 1018.4 hPa | 0 mm | - | 54 W/m² | - |
| 1777640310 | 7.78° C | 79% | 1018.3 hPa | 0 mm | - | 47 W/m² | - |
| 1777640007 | 7.78° C | 78% | 1018.2 hPa | 0 mm | - | 46 W/m² | - |
| 1777639704 | 7.22° C | 80% | 1018.2 hPa | 0 mm | - | 40 W/m² | - |
| 1777639402 | 7.22° C | 80% | 1018.3 hPa | 0 mm | - | 32 W/m² | - |
| 1777639097 | 6.67° C | 81% | 1018 hPa | 0 mm | - | 24 W/m² | - |
| 1777638795 | 6.67° C | 82% | 1018.1 hPa | 0 mm | - | 14 W/m² | - |
| 1777638490 | 6.67° C | 84% | 1018.2 hPa | 0 mm | - | 9 W/m² | - |
| 1777638187 | 6.67° C | 84% | 1017.7 hPa | 0 mm | - | 5 W/m² | - |
| 1777637882 | 6.67° C | 84% | 1017.9 hPa | 0 mm | - | 3 W/m² | - |
| 1777637579 | 6.67° C | 83% | 1017.7 hPa | 0 mm | - | 2 W/m² | - |
| 1777637276 | 6.67° C | 82% | 1017.9 hPa | 0 mm | - | 1 W/m² | - |
| 1777636973 | 6.67° C | 82% | 1017.9 hPa | 0 mm | - | 0 W/m² | - |
| 1777636669 | 6.67° C | 81% | 1017.3 hPa | 0 mm | - | 0 W/m² | - |
| 1777636365 | 6.67° C | 80% | 1017.4 hPa | 0 mm | - | 0 W/m² | - |
| 1777636065 | 6.67° C | 80% | 1017.7 hPa | 0 mm | - | 0 W/m² | - |
| 1777635761 | 6.67° C | 81% | 1017.4 hPa | 0 mm | - | 0 W/m² | - |
| 1777635458 | 6.67° C | 82% | 1017.7 hPa | 0 mm | - | 0 W/m² | - |
| 1777635155 | 6.67° C | 83% | 1017.6 hPa | 0 mm | - | 0 W/m² | - |
| 1777634851 | 6.67° C | 83% | 1017.4 hPa | 0 mm | - | 0 W/m² | - |
| 1777634549 | 6.67° C | 83% | 1017.6 hPa | 0 mm | - | 0 W/m² | - |
| 1777634245 | 6.67° C | 83% | 1017.6 hPa | 0 mm | - | 0 W/m² | - |
| 1777633942 | 6.67° C | 83% | 1017.7 hPa | 0 mm | - | 0 W/m² | - |
| 1777633639 | 6.67° C | 84% | 1017.6 hPa | 0 mm | - | 0 W/m² | - |
* Rain latest hour (hover to see other rain measurements)
** Current wind speed in m/s (hover to see current wind gust speed)